date time,N1_QBC,N3_HBC,N4_LRTC,N5_HBC,B24_CLBC,B45_CLBC,N1_HRTC,N2_HRTC,N3_HRTC,N4_HRTC,N5_HRTC,N1_SRTC,N2_SRTC,N3_SRTC,N4_SRTC,N5_SRTC,B24_CL,B24_Q,B45_CL,B45_Q,B12_Q,B23_Q,nJac,nFun,res
1995-06-16 10:00:00,200,0,-0.124135,-1.5,2.001,2.001,3.47744,1.65611,0,-0.965452,-1.5,869359,1882900,1000000,258637,17500,2.001,0,2.001,0,200,200,,,
1995-06-16 10:10:00,200,0,-0.72633341953,-1.5,2,2,3.47743936266,1.65611033699,0,-0.967195200207,-1.5,869359.840666,1882896.82355,1000000,258201.199948,17500,2,0,2,0,200.000265557,199.999976305,,,
1995-06-16 10:20:00,200,0,-0.701171350483,-1.5,2.00099992752,2.00099992752,3.47743888403,1.65611055785,0,-0.968878011448,-1.5,869359.721007,1882896.9373,1000000,257780.497138,17500,2.00099992752,0,2.00099992752,0,200.000199431,200.000009858,,,
1995-06-16 10:30:00,200,0,-0.676873322247,-1.5,2,2,3.47743852359,1.65611069572,0,-0.970502507421,-1.5,869359.630897,1882897.0083,1000000,257374.373145,17500,2,0,2,0,200.000150184,200.000031848,,,
1995-06-16 10:40:00,200,0,-0.653249766403,-1.5,2.00099992752,2.00099992752,3.47743825127,1.65611077482,0,-0.972070306861,-1.5,869359.562818,1882897.04903,1000000,256982.423285,17500,2.00099992752,0,2.00099992752,0,200.000113464,200.000045575,,,
1995-06-16 10:50:00,200,0,-0.630311641155,-1.5,2,2,3.47743804477,1.65611081279,0,-0.9735830548,-1.5,869359.511192,1882897.06859,1000000,256604.2363,17500,2,0,2,0,200.000086044,200.00005345,,,
1995-06-16 11:00:00,200,0,-0.608178959461,-1.5,2.00099992752,2.00099992752,3.47743788749,1.65611082246,0,-0.975042684302,-1.5,869359.471872,1882897.07357,1000000,256239.328924,17500,2.00099992752,0,2.00099992752,0,200.000065534,200.000057231,,,
1995-06-16 11:10:00,200,0,-0.58661881901,-1.5,2,2,3.4774377671,1.6561108131,0,-0.976450569468,-1.5,869359.441776,1882897.06875,1000000,255887.357633,17500,2,0,2,0,200.000050159,200.000058194,,,
1995-06-16 11:20:00,200,0,-0.565750947225,-1.5,2.00099992752,2.00099992752,3.47743767445,1.65611079137,0,-0.977808371741,-1.5,869359.418612,1882897.05755,1000000,255547.907065,17500,2.00099992752,0,2.00099992752,0,200.000038607,200.000057262,,,
1995-06-16 11:30:00,200,0,-0.545591749911,-1.5,2,2,3.47743760268,1.65611076201,0,-0.979117791941,-1.5,869359.40067,1882897.04244,1000000,255220.552015,17500,2,0,2,0,200.000029903,200.000055098,,,
1995-06-16 11:40:00,200,0,-0.525934129104,-1.5,2.00099992752,2.00099992752,3.47743754671,1.65611072839,0,-0.980380033851,-1.5,869359.386677,1882897.02512,1000000,254904.991537,17500,2.00099992752,0,2.00099992752,0,200.000023321,200.000052176,,,
1995-06-16 11:50:00,200,0,-0.506984760474,-1.5,2,2,3.47743750273,1.65611069286,0,-0.981596797276,-1.5,869359.375682,1882897.00682,1000000,254600.800681,17500,2,0,2,0,200.000018326,200.000048829,,,
1995-06-16 12:00:00,200,0,-0.488556182967,-1.5,2.00099992752,2.00099992752,3.47743746788,1.65611065701,0,-0.982769332115,-1.5,869359.36697,1882896.98836,1000000,254307.666971,17500,2.00099992752,0,2.00099992752,0,200.000014518,200.00004529,,,
1995-06-16 12:10:00,200,0,-0.470732330243,-1.5,2,2,3.47743744004,1.65611062192,0,-0.983899089708,-1.5,869359.36001,1882896.97029,1000000,254025.227573,17500,2,0,2,0,200.000011601,200.000041721,,,
1995-06-16 12:20:00,200,0,-0.453465262071,-1.5,2.00099992752,2.00099992752,3.4774374176,1.65611058828,0,-0.984987406337,-1.5,869359.354399,1882896.95296,1000000,253753.148416,17500,2.00099992752,0,2.00099992752,0,200.000009352,200.000038227,,,
1995-06-16 12:30:00,200,0,-0.436718892486,-1.5,2,2,3.47743739934,1.65611055651,0,-0.986035531679,-1.5,869359.349834,1882896.9366,1000000,253491.11708,17500,2,0,2,0,200.000007608,200.000034877,,,
1995-06-16 12:40:00,200,0,-0.420527503695,-1.5,2.00099992752,2.00099992752,3.47743738435,1.65611052683,0,-0.987044797688,-1.5,869359.346086,1882896.92132,1000000,253238.800578,17500,2.00099992752,0,2.00099992752,0,200.000006246,200.000031714,,,
1995-06-16 12:50:00,200,0,-0.404812718806,-1.5,2,2,3.47743737193,1.65611049935,0,-0.988016348213,-1.5,869359.342982,1882896.90717,1000000,252995.912947,17500,2,0,2,0,200.000005174,200.00002876,,,
1995-06-16 13:00:00,200,0,-0.389624411704,-1.5,2.00099992752,2.00099992752,3.47743736155,1.65611047407,0,-0.988951446801,-1.5,869359.340389,1882896.89415,1000000,252762.1383,17500,2.00099992752,0,2.00099992752,0,200.000004323,200.000026024,,,
1995-06-16 13:10:00,200,0,-0.374897024668,-1.5,2,2,3.47743735281,1.65611045093,0,-0.98985119966,-1.5,869359.338203,1882896.88223,1000000,252537.200085,17500,2,0,2,0,200.000003642,200.000023506,,,
1995-06-16 13:20:00,200,0,-0.36064984622,-1.5,2.00099992752,2.00099992752,3.47743734539,1.65611042983,0,-0.990716759291,-1.5,869359.336348,1882896.87136,1000000,252320.810177,17500,2.00099992752,0,2.00099992752,0,200.000003092,200.000021202,,,
1995-06-16 13:30:00,200,0,-0.346867044523,-1.5,2,2,3.47743733905,1.65611041066,0,-0.991549240198,-1.5,869359.334762,1882896.86149,1000000,252112.689951,17500,2,0,2,0,200.000002643,200.000019101,,,
1995-06-16 13:40:00,200,0,-0.33350767655,-1.5,2.00099992752,2.00099992752,3.47743733359,1.65611039328,0,-0.992349658621,-1.5,869359.333397,1882896.85254,1000000,251912.585345,17500,2.00099992752,0,2.00099992752,0,200.000002275,200.000017192,,,
1995-06-16 13:50:00,200,0,-0.320616048144,-1.5,2,2,3.47743732887,1.65611037756,0,-0.993119137137,-1.5,869359.332216,1882896.84444,1000000,251720.215716,17500,2,0,2,0,200.000001969,200.000015462,,,
1995-06-16 14:00:00,200,0,-0.308110387186,-1.5,2.00099992752,2.00099992752,3.47743732475,1.65611036336,0,-0.993858602066,-1.5,869359.331189,1882896.83713,1000000,251535.349483,17500,2.00099992752,0,2.00099992752,0,200.000001713,200.000013897,,,
1995-06-16 14:10:00,200,0,-0.296032939394,-1.5,2,2,3.47743732116,1.65611035056,0,-0.994569081121,-1.5,869359.330291,1882896.83054,1000000,251357.72972,17500,2,0,2,0,200.000001496,200.000012483,,,
1995-06-16 14:20:00,200,0,-0.284372048679,-1.5,2.00099992752,2.00099992752,3.47743731801,1.65611033903,0,-0.995251574038,-1.5,869359.329503,1882896.8246,1000000,251187.106491,17500,2.00099992752,0,2.00099992752,0,200.000001313,200.000011209,,,
1995-06-16 14:30:00,200,0,-0.273079292214,-1.5,2,2,3.47743731524,1.65611032866,0,-0.995906964339,-1.5,869359.32881,1882896.81926,1000000,251023.258915,17500,2,0,2,0,200.000001155,200.000010061,,,
1995-06-16 14:40:00,200,0,-0.262178422477,-1.5,2.00099992752,2.00099992752,3.47743731279,1.65611031933,0,-0.996536192553,-1.5,869359.328198,1882896.81445,1000000,250865.951862,17500,2.00099992752,0,2.00099992752,0,200.00000102,200.000009028,,,
1995-06-16 14:50:00,200,0,-0.251659937701,-1.5,2,2,3.47743731063,1.65611031094,0,-0.997140176403,-1.5,869359.327657,1882896.81014,1000000,250714.955899,17500,2,0,2,0,200.000000902,200.000008099,,,
1995-06-16 15:00:00,200,0,-0.24151130916,-1.5,2.00099992752,2.00099992752,3.47743730871,1.65611030341,0,-0.997719803545,-1.5,869359.327177,1882896.80626,1000000,250570.049114,17500,2.00099992752,0,2.00099992752,0,200.0000008,200.000007264,,,
1995-06-16 15:10:00,200,0,-0.231717076559,-1.5,2,2,3.477437307,1.65611029665,0,-0.998275924529,-1.5,869359.32675,1882896.80277,1000000,250431.018868,17500,2,0,2,0,200.000000711,200.000006514,,,
1995-06-16 15:20:00,200,0,-0.222277817589,-1.5,2.00099992752,2.00099992752,3.47743730548,1.65611029058,0,-0.998809391291,-1.5,869359.326371,1882896.79965,1000000,250297.652177,17500,2.00099992752,0,2.00099992752,0,200.000000632,200.000005841,,,
1995-06-16 15:30:00,200,0,-0.213190993771,-1.5,2,2,3.47743730413,1.65611028514,0,-0.999321049676,-1.5,869359.326033,1882896.79685,1000000,250169.737581,17500,2,0,2,0,200.000000563,200.000005237,,,
1995-06-16 15:40:00,200,0,-0.2044509328,-1.5,2.00099992752,2.00099992752,3.47743730293,1.65611028025,0,-0.999811731915,-1.5,869359.325732,1882896.79433,1000000,250047.067021,17500,2.00099992752,0,2.00099992752,0,200.000000502,200.000004695,,,
1995-06-16 15:50:00,200,0,-0.196053676756,-1.5,2,2,3.47743730185,1.65611027587,0,-1.00028226074,-1.5,869359.325463,1882896.79207,1000000,249929.434815,17500,2,0,2,0,200.000000448,200.000004208,,,
1995-06-16 16:00:00,200,0,-0.187996673193,-1.5,2.00099992752,2.00099992752,3.47743730089,1.65611027194,0,-1.00073345275,-1.5,869359.325223,1882896.79005,1000000,249816.636811,17500,2.00099992752,0,2.00099992752,0,200.0000004,200.000003772,,,
1995-06-16 16:10:00,200,0,-0.18027077823,-1.5,2,2,3.47743730003,1.65611026842,0,-1.00116610262,-1.5,869359.325008,1882896.78824,1000000,249708.474344,17500,2,0,2,0,200.000000357,200.000003381,,,
1995-06-16 16:20:00,200,0,-0.18027077823,-1.5,2.00099992752,2.00099992752,3.47743729927,1.65611026526,0,-1.00159875249,-1.5,869359.324817,1882896.78661,1000000,249600.311877,17500,2.00099992752,0,2.00099992752,0,200.00000032,200.00000303,,,
1995-06-16 16:30:00,200,0,-0.18027077823,-1.5,2,2,3.47743729858,1.65611026243,0,-1.00203140236,-1.5,869359.324645,1882896.78515,1000000,249492.14941,17500,2,0,2,0,200.000000286,200.000002716,,,
1995-06-16 16:40:00,200,0,-0.18027077823,-1.5,2.00099992752,2.00099992752,3.47743729797,1.65611025989,0,-1.00246405223,-1.5,869359.324492,1882896.78384,1000000,249383.986944,17500,2.00099992752,0,2.00099992752,0,200.000000256,200.000002434,,,
1995-06-16 16:50:00,200,0,-0.18027077823,-1.5,2,2,3.47743729742,1.65611025762,0,-1.00289670209,-1.5,869359.324355,1882896.78267,1000000,249275.824477,17500,2,0,2,0,200.000000229,200.000002181,,,
1995-06-16 17:00:00,200,0,-0.18027077823,-1.5,2.00099992752,2.00099992752,3.47743729693,1.65611025558,0,-1.00332935196,-1.5,869359.324232,1882896.78162,1000000,249167.66201,17500,2.00099992752,0,2.00099992752,0,200.000000205,200.000001955,,,
1995-06-16 17:10:00,200,0,-0.18027077823,-1.5,2,2,3.47743729649,1.65611025375,0,-1.00376200183,-1.5,869359.324122,1882896.78068,1000000,249059.499543,17500,2,0,2,0,200.000000183,200.000001752,,,
1995-06-16 17:20:00,200,0,-0.18027077823,-1.5,2.00099992752,2.00099992752,3.47743729609,1.65611025211,0,-1.0041946517,-1.5,869359.324023,1882896.77984,1000000,248951.337076,17500,2.00099992752,0,2.00099992752,0,200.000000164,200.00000157,,,
1995-06-16 17:30:00,200,0,-0.18027077823,-1.5,2,2,3.47743729574,1.65611025065,0,-1.00462730156,-1.5,869359.323935,1882896.77908,1000000,248843.174609,17500,2,0,2,0,200.000000147,200.000001407,,,
1995-06-16 17:40:00,200,0,-0.18027077823,-1.5,2.00099992752,2.00099992752,3.47743729542,1.65611024933,0,-1.00505995143,-1.5,869359.323856,1882896.77841,1000000,248735.012142,17500,2.00099992752,0,2.00099992752,0,200.000000132,200.000001261,,,
1995-06-16 17:50:00,200,0,-0.18027077823,-1.5,2,2,3.47743729514,1.65611024815,0,-1.0054926013,-1.5,869359.323785,1882896.7778,1000000,248626.849675,17500,2,0,2,0,200.000000118,200.00000113,,,
1995-06-16 18:00:00,200,0,-0.18027077823,-1.5,2.00099992752,2.00099992752,3.47743729489,1.6561102471,0,-1.00592525117,-1.5,869359.323722,1882896.77725,1000000,248518.687208,17500,2.00099992752,0,2.00099992752,0,200.000000106,200.000001012,,,
1995-06-16 18:10:00,200,0,-0.18027077823,-1.5,2,2,3.47743729466,1.65611024615,0,-1.00635790104,-1.5,869359.323665,1882896.77677,1000000,248410.524741,17500,2,0,2,0,200.000000095,200.000000907,,,
1995-06-16 18:20:00,200,0,-0.18027077823,-1.5,2.00099992752,2.00099992752,3.47743729446,1.6561102453,0,-1.0067905509,-1.5,869359.323614,1882896.77633,1000000,248302.362274,17500,2.00099992752,0,2.00099992752,0,200.000000085,200.000000813,,,
1995-06-16 18:30:00,200,0,-0.18027077823,-1.5,2,2,3.47743729428,1.65611024454,0,-1.00722320077,-1.5,869359.323569,1882896.77594,1000000,248194.199807,17500,2,0,2,0,200.000000076,200.000000728,,,
1995-06-16 18:40:00,200,0,-0.18027077823,-1.5,2.00099992752,2.00099992752,3.47743729411,1.65611024386,0,-1.00765585064,-1.5,869359.323528,1882896.77559,1000000,248086.03734,17500,2.00099992752,0,2.00099992752,0,200.000000068,200.000000653,,,
1995-06-16 18:50:00,200,0,-0.18027077823,-1.5,2,2,3.47743729397,1.65611024325,0,-1.00808850051,-1.5,869359.323491,1882896.77527,1000000,247977.874873,17500,2,0,2,0,200.000000061,200.000000585,,,
1995-06-16 19:00:00,200,0,-0.18027077823,-1.5,2.00099992752,2.00099992752,3.47743729383,1.6561102427,0,-1.00852115037,-1.5,869359.323459,1882896.77499,1000000,247869.712406,17500,2.00099992752,0,2.00099992752,0,200.000000055,200.000000524,,,
1995-06-16 19:10:00,200,0,-0.18027077823,-1.5,2,2,3.47743729372,1.65611024221,0,-1.00895380024,-1.5,869359.323429,1882896.77474,1000000,247761.549939,17500,2,0,2,0,200.000000049,200.00000047,,,
1995-06-16 19:20:00,200,0,-0.18027077823,-1.5,2.00099992752,2.00099992752,3.47743729361,1.65611024177,0,-1.00938645011,-1.5,869359.323403,1882896.77451,1000000,247653.387472,17500,2.00099992752,0,2.00099992752,0,200.000000044,200.000000421,,,
1995-06-16 19:30:00,200,0,-0.18027077823,-1.5,2,2,3.47743729352,1.65611024138,0,-1.00981909998,-1.5,869359.323379,1882896.77431,1000000,247545.225006,17500,2,0,2,0,200.000000039,200.000000377,,,
1995-06-16 19:40:00,200,0,-0.18027077823,-1.5,2.00099992752,2.00099992752,3.47743729343,1.65611024103,0,-1.01025174985,-1.5,869359.323358,1882896.77413,1000000,247437.062539,17500,2.00099992752,0,2.00099992752,0,200.000000035,200.000000338,,,
1995-06-16 19:50:00,200,0,-0.18027077823,-1.5,2,2,3.47743729336,1.65611024071,0,-1.01068439971,-1.5,869359.323339,1882896.77397,1000000,247328.900072,17500,2,0,2,0,200.000000032,200.000000303,,,
1995-06-16 20:00:00,200,0,-0.18027077823,-1.5,2.00099992752,2.00099992752,3.47743729329,1.65611024043,0,-1.01111704958,-1.5,869359.323322,1882896.77382,1000000,247220.737605,17500,2.00099992752,0,2.00099992752,0,200.000000028,200.000000271,,,
1995-06-16 20:10:00,200,0,-0.18027077823,-1.5,2,2,3.47743729323,1.65611024017,0,-1.01154969945,-1.5,869359.323307,1882896.77369,1000000,247112.575138,17500,2,0,2,0,200.000000025,200.000000243,,,
1995-06-16 20:20:00,200,0,-0.18027077823,-1.5,2.00099992752,2.00099992752,3.47743729317,1.65611023995,0,-1.01198234932,-1.5,869359.323294,1882896.77357,1000000,247004.412671,17500,2.00099992752,0,2.00099992752,0,200.000000023,200.000000218,,,
1995-06-16 20:30:00,200,0,-0.18027077823,-1.5,2,2,3.47743729313,1.65611023974,0,-1.01241499918,-1.5,869359.323281,1882896.77347,1000000,246896.250204,17500,2,0,2,0,200.00000002,200.000000195,,,
1995-06-16 20:40:00,200,0,-0.18027077823,-1.5,2.00099992752,2.00099992752,3.47743729308,1.65611023956,0,-1.01284764905,-1.5,869359.32327,1882896.77337,1000000,246788.087737,17500,2.00099992752,0,2.00099992752,0,200.000000018,200.000000175,,,
1995-06-16 20:50:00,200,0,-0.18027077823,-1.5,2,2,3.47743729304,1.6561102394,0,-1.01328029892,-1.5,869359.323261,1882896.77329,1000000,246679.92527,17500,2,0,2,0,200.000000016,200.000000157,,,
1995-06-16 21:00:00,200,0,-0.18027077823,-1.5,2.00099992752,2.00099992752,3.47743729301,1.65611023925,0,-1.01371294879,-1.5,869359.323252,1882896.77321,1000000,246571.762803,17500,2.00099992752,0,2.00099992752,0,200.000000015,200.00000014,,,
1995-06-16 21:10:00,200,0,-0.18027077823,-1.5,2,2,3.47743729298,1.65611023912,0,-1.01414559866,-1.5,869359.323244,1882896.77315,1000000,246463.600336,17500,2,0,2,0,200.000000013,200.000000126,,,
1995-06-16 21:20:00,200,0,-0.18027077823,-1.5,2.00099992752,2.00099992752,3.47743729295,1.656110239,0,-1.01457824852,-1.5,869359.323237,1882896.77309,1000000,246355.437869,17500,2.00099992752,0,2.00099992752,0,200.000000012,200.000000113,,,
1995-06-16 21:30:00,200,0,-0.18027077823,-1.5,2,2,3.47743729292,1.65611023889,0,-1.01501089839,-1.5,869359.323231,1882896.77303,1000000,246247.275402,17500,2,0,2,0,200.000000011,200.000000101,,,
1995-06-16 21:40:00,200,0,-0.18027077823,-1.5,2.00099992752,2.00099992752,3.4774372929,1.6561102388,0,-1.01544354826,-1.5,869359.323225,1882896.77298,1000000,246139.112935,17500,2.00099992752,0,2.00099992752,0,200.000000009,200.000000091,,,
1995-06-16 21:50:00,200,0,-0.18027077823,-1.5,2,2,3.47743729288,1.65611023872,0,-1.01587619813,-1.5,869359.32322,1882896.77294,1000000,246030.950468,17500,2,0,2,0,200.000000008,200.000000081,,,
1995-06-16 22:00:00,200,0,-0.18027077823,-1.5,2.00099992752,2.00099992752,3.47743729286,1.65611023864,0,-1.01630884799,-1.5,869359.323215,1882896.7729,1000000,245922.788001,17500,2.00099992752,0,2.00099992752,0,200.000000008,200.000000073,,,
